Regional Weather Roundup
Issued by NWS Green Bay, WI

Home | Current Version | Previous Version | Text Only | Print | Product List | Glossary On
Versions: 1 2 3 4 5 6 7 8 9 10 11 12 13 14 15 16 17 18 19 20 21 22 23 24 25 26 27 28 29 30 31 32 33 34 35 36 37 38 39 40 41 42 43 44 45 46 47 48 49 50
000
ASUS43 KGRB 191510
RWRGRB

NORTH-CENTRAL AND NORTHEAST WISCONSIN REGIONAL WEATHER ROUNDUP
NATIONAL WEATHER SERVICE GREEN BAY WI
1000 AM CDT FRI SEP 19 2014

WIZ005-009-010>012-018-019-191600-
NORTH CENTRAL WISCONSIN

CITY           SKY/WX    TMP DP  RH WIND       PRES   REMARKS
IRONWOOD       PTSUNNY   61  52  72 SW13G23   29.87S
MANITOWISH WTR PTSUNNY   58  51  76 S16       29.96S
ARBOR VITAE    MOSUNNY   59  51  74 S17G24    29.98F
EAGLE RIVER    SUNNY     56  49  75 S6G16     29.99F
LAND O LAKES   MOSUNNY   57  49  75 S7G20     29.97F
RHINELANDER    MOSUNNY   57  49  74 S17G26    30.02F
PHILLIPS       CLOUDY    57  50  78 S14G21    29.97F
ANTIGO         CLOUDY    52  51  97 S12       30.05F FOG
TOMAHAWK       MOSUNNY   55  50  85 S8        30.01F
MERRILL        MOSUNNY   56  50  80 S10G18    30.03F
$$

WIZ013-073-191600-
NORTHEAST WISCONSIN

CITY           SKY/WX    TMP DP  RH WIND       PRES   REMARKS
IRON MOUNTAIN  CLOUDY    53  48  83 S15G24    30.02F
MARINETTE      CLOUDY    59  55  88 SW17G23   30.08S
OCONTO         PTSUNNY   60  57  89 S10       30.06F
$$

WIZ017-030-035>037-045-191600-
CENTRAL WISCONSIN

CITY           SKY/WX    TMP DP  RH WIND       PRES   REMARKS
MEDFORD        MOSUNNY   56  51  84 S13G18    30.01F
WAUSAU         CLOUDY    56  51  84 S14       30.04F
MOSINEE        CLOUDY    54  54 100 S12G17    30.06F FOG
MARSHFIELD     MOSUNNY   56  52  86 S14       30.03F FOG
WISC RAPIDS    MOSUNNY   58  53  84 S9        30.07F
STEVENS POINT  PTSUNNY   56  50  82 S10G16    30.07F
WAUPACA        PTSUNNY   58  56  96 S9        30.09F FOG
SHAWANO        CLOUDY    56  55  95 SW3       30.08F FOG
CLINTONVILLE   CLOUDY    55  54  94 S13       30.08F
$$

WIZ038-039-048-051-191600-
FOX VALLEY

CITY           SKY/WX    TMP DP  RH WIND       PRES   REMARKS
NWS GREEN BAY  MOSUNNY   62  57  83 S15G21    30.08F
APPLETON       MOSUNNY   59  55  88 S15       30.09F
OSHKOSH        SUNNY     62  56  80 S13       30.08F
FOND DU LAC    SUNNY     63  54  72 S12       30.09F
$$

WIZ022-050-052-191600-
EAST CENTRAL WISCONSIN

CITY           SKY/WX    TMP DP  RH WIND       PRES   REMARKS
STURGEON BAY   CLOUDY    59  55  88 S18G24    30.10F
MANITOWOC      PTSUNNY   63  58  83 S20       30.12F
SHEBOYGAN      SUNNY     63  56  78 S14       30.13F
$$

LMZ563-521-522-541>543-191600-
LAKESHORE

STATION/POSITION TIME  TEMP    WIND        PRES    VSBY  WAVE
                       AIR SEA DIR/SP/G                  HT/PER
                 (UTC) (F)     (DEG/KT/KT) (MB)    (MI)  (FT/S)
SHEBOYGAN LKSHOR 1500   59 51  180/ 18/ 18 1020.4F
KEWAUNEE LKSHORE 1500   56     180/ 10/ 12 1018.7F
NORTHPORT PIER   1500   58     160/  8/ 17 1019.0F
N MID LAKE BUOY  1500   55 58  200/ 21/ 25 1019.4F         4/ 6
S GREEN BAY BUOY 1500   60     VRB 12/ 16  1019.7F
STURGEON BAY CG  1500   56 54  190/ 12     1020.2   3 1/2  4
CHAMBERS ISLAND  1500   59     170/  7/ 15 1019.0S
MENOMINEE LKSHOR 1500   59     180/ 10/ 16 1019.2F
$$


USA.gov is the U.S. government's official web portal to all federal, state and local government web resources and services.